Wetbulb
47.81 47.31 46.53 46.65 46.37 45.98 45.52 45.83 46.38 46.97 45.67 46.05 45.62 44.61 44.42 44.45 44.20 39.00 36.72 44.25 40.16 37.21 38.02 40.33 43.13 39.08 39.09 39.97 34.56 38.95 37.90 39.82 38.55 34.91 33.29 31.08 29.45 33.51 31.94 33.32 31.98 31.10 29.77 29.96 30.40 28.57 24.27 36.85 38.54 34.79 38.42 38.17 38.89 38.21
47.94 47.29 46.68 46.53 46.04 45.63 45.24 45.74 45.75 46.65 45.18 45.50 45.52 45.46 44.72 45.15 43.70 42.18 33.63 43.18 43.74 37.93 38.06 41.93 42.72 44.14 43.42 43.88 42.59 41.37 39.34 39.56 40.70 37.07 35.86 34.75 30.96 31.33 30.56 30.80 34.30 29.98 31.16 29.81 31.17 30.67 37.12 37.32 39.89 40.97 39.49 38.10 37.47 38.27
47.98 47.35 46.89 46.15 45.63 45.51 45.16 45.53 45.31 45.85 46.11 44.77 45.28 45.71 44.79 45.40 44.74 42.40 38.14 39.19 40.55 37.78 39.27 40.45 42.03 47.64 46.77 47.36 48.97 39.34 40.80 42.72 40.84 40.91 37.78 34.05 32.39 32.99 28.82 29.49 32.88 36.35 38.05 34.21 35.04 38.35 38.51 39.63 39.27 39.61 39.05 37.99 37.52 38.42
47.59 47.38 46.71 45.79 45.23 45.21 45.31 45.16 44.96 46.00 45.91 44.61 44.97 45.46 44.82 45.30 45.31 43.30 37.94 39.09 39.68 36.90 34.37 40.59 48.06 45.81 48.56 47.62 46.77 45.94 45.03 45.47 44.51 43.26 39.66 38.55 36.56 38.22 34.68 33.90 35.07 37.36 38.72 36.87 36.27 39.08 39.31 38.62 39.04 39.53 38.02 37.30 37.03 39.40
47.56 47.24 46.63 45.54 45.27 44.86 44.89 44.88 44.73 45.60 44.74 44.40 44.78 44.70 44.89 45.08 45.27 44.02 40.38 39.48 41.59 35.36 33.87 38.74 44.15 45.61 46.76 45.92 43.90 44.16 44.42 44.35 43.13 40.66 39.78 38.32 39.76 38.02 35.68 36.67 32.97 36.01 35.90 34.42 35.69 40.45 38.47 38.82 38.00 38.51 37.12 36.24 36.74 38.65
47.34 47.09 46.20 45.37 44.97 44.67 44.73 44.56 44.66 45.63 43.83 44.51 44.40 44.41 45.04 45.31 44.87 38.44 33.79 40.66 42.13 40.42 35.62 35.62 43.57 42.50 42.59 44.84 46.51 45.37 45.23 44.65 43.69 41.97 40.77 41.73 43.04 39.98 36.75 35.10 38.22 38.57 39.13 39.50 38.22 40.16 39.87 39.66 37.71 37.21 36.24 36.00 36.25 37.16
47.37 46.82 45.62 44.89 44.80 44.82 44.40 44.31 45.28 44.39 44.15 44.29 44.22 44.59 45.23 45.51 38.26 32.97 36.71 41.31 43.00 41.64 36.47 36.18 37.54 43.49 45.29 45.03 44.48 45.02 46.59 44.84 43.72 41.76 40.20 40.69 40.81 41.09 37.76 31.91 37.31 38.39 38.99 40.24 40.27 39.37 37.86 37.52 38.05 36.72 35.77 35.20 36.74 33.98
47.25 45.91 45.03 44.34 44.56 44.29 44.05 43.76 45.20 43.82 43.61 44.03 43.80 44.73 45.17 45.33 41.28 36.99 41.02 44.01 45.03 39.88 40.70 35.32 35.68 38.46 44.04 41.03 40.77 44.66 42.90 43.11 42.59 41.07 41.61 39.59 40.30 40.16 35.43 35.99 34.81 36.78 37.80 39.47 38.16 38.30 36.80 36.11 34.52 33.54 32.85 32.03 31.13 30.58
46.74 45.70 44.36 44.22 44.02 43.71 43.31 44.37 44.37 43.28 43.76 43.03 44.07 43.96 40.66 41.00 37.10 40.34 46.44 45.66 44.80 41.25 37.23 37.73 33.49 32.36 44.24 42.33 42.55 42.72 43.30 38.43 42.13 38.23 38.79 39.99 37.74 35.03 33.45 31.70 33.74 33.77 34.83 35.91 37.43 38.37 36.22 35.21 33.96 32.28 31.33 30.65 29.92 28.96
45.86 44.49 44.08 43.83 43.48 43.38 43.76 44.68 43.86 43.53 42.33 43.46 41.74 39.02 36.96 40.96 44.58 44.44 42.49 40.16 39.72 40.67 40.27 37.46 38.01 34.18 39.53 39.30 38.88 40.43 41.06 37.97 32.74 37.09 39.51 36.57 36.01 35.35 34.82 33.77 33.83 33.24 34.63 34.93 33.50 33.91 35.11 31.55 32.33 32.04 31.26 31.51 30.88 29.80
45.04 44.34 43.98 43.47 42.32 43.43 44.60 43.87 43.33 41.62 40.28 36.13 36.91 36.63 40.06 43.31 41.69 40.12 36.65 36.66 36.99 35.33 39.86 37.16 37.59 35.87 39.16 34.07 35.81 38.84 35.23 34.32 32.04 34.01 34.43 32.33 33.00 34.10 32.39 30.23 31.23 32.35 34.51 33.75 34.32 35.62 36.66 37.43 37.69 35.84 33.44 33.63 32.83 31.65
44.77 43.64 43.32 42.31 41.33 42.76 44.86 43.06 42.05 35.54 33.87 34.63 36.01 39.13 39.42 39.07 36.88 33.88 33.12 34.99 34.60 31.64 37.65 38.39 37.85 38.69 39.01 40.68 35.83 36.21 33.45 33.49 30.88 36.13 32.58 29.33 33.77 30.27 29.84 29.74 30.88 32.08 33.40 34.89 36.31 36.48 37.23 38.02 38.71 38.10 35.82 34.58 33.49 32.42
43.93 42.86 42.82 41.86 41.46 42.84 44.39 42.65 41.29 40.31 40.77 39.62 37.11 33.39 35.32 35.30 30.87 31.43 29.31 30.88 32.54 34.81 35.17 35.44 35.14 37.95 39.19 39.13 35.19 34.55 32.22 32.04 35.46 31.64 28.02 32.08 30.25 29.24 29.06 30.51 30.97 32.78 34.37 34.84 35.72 37.09 38.23 38.45 37.52 36.29 34.35 33.75 32.33 30.45
43.57 43.13 42.64 42.33 42.44 43.22 43.85 42.24 40.13 39.13 37.96 33.83 31.35 30.22 30.78 30.22 30.39 30.88 25.93 31.55 34.12 34.26 35.39 36.84 35.56 36.21 38.19 35.25 35.38 32.24 33.30 32.28 28.62 27.36 27.72 28.99 27.43 28.42 30.00 30.66 30.59 30.34 31.71 32.67 33.82 35.09 36.41 38.91 38.95 37.10 35.16 32.96 31.22 29.11
43.42 42.94 42.99 42.42 42.22 42.38 41.13 39.99 40.42 36.68 33.45 28.98 30.10 24.42 29.32 30.98 32.14 32.01 32.40 33.25 33.70 36.37 36.14 35.43 34.16 35.49 32.94 32.41 33.26 31.98 29.58 27.63 28.85 27.34 27.94 25.28 26.46 27.01 28.35 29.27 29.49 29.76 30.17 31.17 32.12 32.13 33.22 34.71 35.23 33.92 34.00 32.90 31.97 29.48
43.57 42.41 40.92 41.88 41.28 40.17 39.51 38.85 36.98 33.85 26.18 26.49 26.09 21.70 30.64 30.67 30.19 30.82 31.99 32.18 34.30 35.31 35.39 34.29 32.74 30.91 30.19 31.74 29.94 28.93 27.53 26.34 24.70 28.76 29.41 23.84 25.37 26.00 26.59 27.58 28.39 29.47 29.58 29.93 30.71 31.06 30.81 31.43 31.14 31.13 31.27 30.61 29.49 28.56
42.19 37.83 41.50 41.89 40.07 40.16 39.08 34.59 32.65 26.33 21.71 18.50 18.92 25.28 29.01 18.25 22.70 30.16 33.28 33.05 34.77 33.92 32.52 32.77 30.93 27.72 31.83 30.16 28.79 31.00 29.85 29.23 23.10 28.54 26.83 23.51 24.38 24.73 24.49 26.95 27.64 29.11 28.98 28.65 28.72 29.19 29.27 28.79 28.65 28.58 27.29 27.11 27.56 27.74
38.19 40.50 41.86 40.70 39.47 36.89 34.02 31.73 27.14 24.29 21.53 22.00 21.33 20.03 27.98 28.38 30.06 31.33 31.76 32.75 33.45 32.29 32.34 31.87 31.66 29.55 29.44 27.79 27.86 28.13 28.51 28.92 29.14 28.81 27.66 25.82 24.56 24.90 25.99 25.13 26.70 28.31 29.04 27.27 26.21 26.34 26.81 27.20 26.99 26.86 25.17 24.26 24.10 24.12
40.28 41.29 41.79 41.61 37.34 32.94 28.44 27.71 27.90 22.49 23.31 25.91 26.57 25.70 26.64 27.82 30.59 30.35 31.01 31.63 33.17 33.68 30.76 30.14 26.86 28.01 24.44 24.27 22.78 15.94 18.20 22.22 28.09 27.93 27.76 27.24 25.47 24.25 24.08 22.83 24.96 24.02 24.00 24.29 25.11 26.91 26.25 25.95 25.93 25.70 25.40 24.73 24.21 23.90
42.32 42.17 42.15 41.54 36.76 29.50 25.35 25.60 28.84 24.35 21.95 25.37 26.82 25.70 26.09 25.66 26.26 27.99 28.91 29.64 29.98 28.35 26.03 25.85 26.69 26.88 26.20 25.34 22.58 22.69 22.65 25.25 24.36 22.91 21.82 21.48 21.62 15.76 19.32 19.38 22.02 21.66 22.73 23.24 23.67 29.56 28.28 26.43 26.38 26.13 24.95 24.20 23.25 22.97
38.65 37.38 37.55 34.32 30.36 28.70 25.23 23.91 23.04 23.47 24.15 23.61 23.84 25.34 23.47 23.49 24.18 24.28 25.06 28.61 26.75 24.64 20.07 23.12 24.38 25.34 20.46 20.71 25.23 25.23 24.10 22.22 21.68 21.23 19.66 14.96 19.40 18.05 17.27 16.28 13.59 21.20 20.49 20.13 20.82 23.26 26.62 26.03 25.11 27.23 27.79 26.61 25.81 24.31
35.69 37.93 32.41 31.62 23.98 20.40 22.04 23.88 21.70 24.13 21.55 21.13 21.35 22.30 19.25 17.84 17.88 19.47 25.14 23.76 24.08 23.78 22.89 21.80 19.97 21.96 20.17 21.19 19.05 18.49 20.83 21.57 20.39 19.88 23.12 21.82 17.63 15.32 16.05 16.23 15.17 10.56 11.61 10.86 16.35 18.96 20.96 22.40 23.96 26.48 28.69 27.57 28.11 25.48
35.68 32.42 26.58 20.68 17.90 15.95 14.78 21.01 17.21 17.47 13.91 14.61 16.71 13.99 14.31 14.48 15.77 23.07 20.98 20.37 21.68 25.03 21.21 20.45 17.16 16.15 20.87 17.47 19.82 19.34 19.37 17.80 16.74 17.00 17.62 17.70 17.40 17.04 14.78 15.03 15.52 7.89 11.69 15.14 16.87 17.35 17.39 23.13 26.02 26.63 27.06 28.23 25.77 24.59
35.05 26.56 20.79 15.94 13.45 12.50 15.75 10.74 18.27 14.58 12.80 14.36 11.64 10.70 11.12 11.17 16.30 16.70 13.14 15.92 22.35 20.08 17.91 16.20 14.82 14.77 14.17 12.69 13.64 16.23 17.69 17.31 15.38 12.46 12.06 11.58 9.81 13.98 16.62 16.74 17.84 16.28 17.13 18.12 15.95 15.85 18.20 20.37 24.23 24.33 25.16 25.94 24.23 24.32
26.93 18.71 18.45 9.57 11.73 8.46 5.22 6.95 6.36 9.85 7.16 8.71 10.16 8.67 8.60 9.77 6.31 6.20 11.22 18.10 19.21 16.48 15.76 15.95 15.29 14.35 16.45 13.26 12.57 13.30 13.07 16.35 14.75 14.34 12.17 12.86 10.51 9.40 9.92 13.03 16.08 17.03 17.51 10.86 15.40 16.25 14.93 15.10 21.33 22.80 23.32 24.63 23.56 23.20
17.51 15.51 19.50 12.82 5.05 9.13 9.02 2.99 4.50 5.33 6.71 4.91 7.03 6.27 4.60 5.15 2.98 8.63 13.11 14.93 11.38 11.97 13.57 15.61 19.13 14.26 11.36 12.71 11.45 9.81 14.83 15.75 14.09 11.87 11.81 13.59 13.28 10.02 4.57 8.25 12.41 13.02 16.22 17.39 12.37 12.86 13.71 13.05 13.85 14.31 18.17 20.73 25.82 26.63
15.73 13.40 18.70 20.54 15.66 13.42 10.53 12.57 14.07 9.72 4.07 6.27 7.61 7.99 5.37 3.21 5.70 13.38 15.38 14.70 14.81 12.97 13.27 17.87 20.06 19.84 19.91 16.66 14.23 12.41 9.30 11.99 12.87 11.97 10.78 10.15 10.77 12.96 11.93 10.76 11.24 14.30 14.71 12.17 11.62 13.25 13.77 14.96 15.34 15.49 15.85 18.27 20.98 23.21
21.90 16.80 14.02 13.21 10.23 8.91 7.08 7.41 6.08 7.12 9.32 15.35 14.99 8.33 9.14 8.10 12.49 15.72 15.18 12.97 9.97 8.33 6.29 10.04 10.13 13.45 14.27 11.07 9.84 12.00 7.72 4.45 4.40 5.88 6.71 9.00 9.69 9.06 10.50 13.11 14.19 19.57 18.04 14.92 15.44 15.90 15.43 15.54 16.38 16.46 16.39 17.46 19.54 21.21
15.90 13.40 14.23 3.05 3.58 4.77 8.89 10.29 10.00 13.67 18.27 15.53 12.14 11.68 11.98 14.95 14.71 11.46 13.67 10.08 4.67 8.46 9.74 9.70 8.49 1.65 2.47 0.86 0.97 3.55 5.81 8.05 8.68 7.41 7.92 11.98 4.74 7.22 5.47 6.87 7.96 8.52 9.60 11.73 19.29 22.31 21.42 20.08 19.86 20.03 19.40 20.03 21.43 23.49
10.88 11.88 7.92 1.90 6.51 8.02 10.02 11.59 7.96 8.22 11.88 12.14 12.33 10.39 10.83 12.35 14.26 7.80 5.53 3.75 8.44 12.22 11.38 8.64 5.84 9.46 7.92 8.35 7.87 3.81 0.98 4.31 8.46 11.41 8.63 9.85 7.10 3.21 0.90 5.31 10.19 11.57 9.85 12.64 14.29 13.55 19.63 17.62 16.79 15.94 17.83 20.58 23.22 21.39
13.55 7.19 4.47 6.11 7.49 2.69 0.89 4.27 5.12 10.63 3.06 0.35 -0.34 4.33 7.85 6.60 9.63 10.14 10.85 9.32 7.17 2.19 2.95 1.79 -1.22 -2.57 6.02 2.95 2.83 1.12 6.11 3.11 2.29 4.13 4.10 4.41 5.77 8.48 10.55 12.02 13.02 13.24 13.43 14.77 14.91 13.90 12.96 11.60 9.04 12.74 16.49 20.00 20.44 22.60
7.22 5.75 8.15 3.96 2.88 -0.89 3.72 2.88 2.00 0.75 -2.73 -1.32 0.07 -3.98 0.53 3.00 6.26 12.31 5.90 1.70 3.27 7.88 13.09 12.16 10.17 11.48 6.75 4.95 0.71 1.05 15.28 2.90 3.40 4.89 4.97 8.28 10.24 12.03 12.97 14.34 15.71 15.42 15.37 16.73 15.59 14.17 13.40 11.12 11.98 14.16 17.52 17.80 20.59 20.35
9.66 4.07 1.19 1.72 -0.14 0.52 4.07 6.18 3.68 -0.07 -2.73 -3.34 -0.56 -0.99 -2.02 3.70 8.11 12.27 5.71 0.86 6.13 8.79 9.04 7.45 3.40 1.01 0.36 0.75 1.52 1.89 11.16 2.04 4.33 18.29 21.33 21.82 22.75 22.84 22.48 21.73 22.73 21.20 19.23 17.28 14.65 14.59 13.55 13.57 14.51 16.60 18.29 19.85 20.53 19.10
MSLP
1018.18 1018.48 1018.74 1018.77 1018.74 1018.76 1018.78 1018.63 1018.38 1018.09 1017.83 1017.68 1017.52 1017.58 1017.45 1017.29 1017.13 1017.49 1017.58 1017.16 1017.17 1016.37 1015.02 1014.16 1013.49 1012.87 1012.35 1012.38 1012.71 1012.98 1013.04 1013.09 1013.36 1013.67 1014.00 1013.99 1014.11 1013.65 1013.68 1013.57 1013.71 1014.06 1014.54 1014.52 1014.50 1013.94 1012.12 1010.26 1010.40 1010.36 1010.38 1010.27 1010.44 1010.82
1017.72 1017.96 1018.22 1018.38 1018.40 1018.46 1018.44 1018.30 1018.10 1017.83 1017.63 1017.43 1017.20 1017.10 1017.16 1017.06 1016.91 1017.08 1017.64 1017.13 1017.10 1016.81 1015.29 1014.26 1013.48 1012.87 1012.59 1012.24 1012.21 1012.55 1012.77 1012.80 1013.05 1013.42 1013.82 1014.08 1014.23 1014.00 1013.70 1013.60 1013.29 1013.49 1013.09 1013.24 1013.05 1011.79 1010.39 1009.95 1009.94 1009.89 1010.13 1010.40 1010.50 1010.86
1017.11 1017.44 1017.79 1017.99 1018.02 1018.08 1018.06 1017.88 1017.69 1017.51 1017.26 1017.12 1016.90 1016.72 1016.67 1016.60 1016.51 1016.68 1016.98 1017.27 1017.22 1016.52 1014.97 1014.04 1012.60 1011.82 1011.97 1012.05 1011.71 1012.09 1012.68 1012.46 1012.88 1013.11 1013.63 1014.09 1014.24 1013.99 1013.72 1013.24 1012.95 1012.47 1012.17 1012.32 1011.94 1010.21 1010.03 1009.73 1009.67 1009.84 1010.11 1010.29 1010.59 1010.88
1016.63 1017.00 1017.31 1017.54 1017.66 1017.71 1017.71 1017.43 1017.19 1017.10 1016.81 1016.66 1016.45 1016.28 1016.17 1016.12 1016.01 1016.12 1016.62 1016.98 1017.33 1016.68 1015.19 1012.70 1011.58 1011.63 1011.57 1011.58 1011.64 1011.73 1011.86 1012.29 1012.71 1013.10 1013.44 1013.73 1013.68 1013.29 1013.19 1012.97 1012.72 1011.79 1011.69 1011.37 1011.01 1010.19 1009.75 1009.46 1009.52 1009.70 1010.09 1010.43 1010.75 1011.14
1016.10 1016.49 1016.92 1017.17 1017.22 1017.33 1017.28 1016.95 1016.78 1016.65 1016.39 1016.20 1016.02 1015.89 1015.74 1015.60 1015.55 1015.64 1015.99 1016.26 1016.55 1017.29 1015.33 1012.99 1012.08 1011.71 1011.61 1011.72 1011.76 1011.90 1012.04 1012.39 1012.80 1013.22 1013.33 1013.28 1013.01 1013.02 1012.86 1012.90 1012.21 1011.57 1011.30 1011.28 1010.62 1009.98 1009.89 1009.61 1009.49 1009.82 1010.37 1010.66 1010.93 1011.43
1015.57 1016.07 1016.48 1016.85 1016.91 1016.93 1016.83 1016.54 1016.41 1016.16 1016.00 1015.75 1015.53 1015.27 1015.11 1014.98 1015.01 1015.64 1016.00 1015.66 1015.81 1016.84 1015.59 1013.16 1011.86 1011.77 1011.90 1011.95 1011.96 1012.00 1012.15 1012.45 1012.66 1012.82 1012.74 1012.63 1012.32 1012.47 1012.56 1012.41 1011.51 1011.47 1011.37 1011.22 1010.68 1009.93 1009.81 1009.74 1009.88 1010.15 1010.58 1010.86 1011.16 1011.48
1015.00 1015.57 1016.06 1016.33 1016.45 1016.51 1016.33 1016.15 1016.06 1015.74 1015.58 1015.33 1015.01 1014.77 1014.34 1014.17 1015.05 1015.38 1015.28 1015.18 1015.25 1016.30 1015.20 1013.17 1012.15 1011.80 1011.69 1011.82 1012.10 1012.21 1012.23 1012.36 1012.49 1012.57 1012.59 1012.40 1012.17 1012.32 1012.48 1012.49 1012.09 1011.93 1011.56 1011.14 1010.86 1010.32 1010.15 1010.07 1010.14 1010.41 1010.86 1011.22 1011.39 1011.82
1014.47 1015.06 1015.55 1015.89 1016.02 1016.10 1015.95 1015.84 1015.63 1015.38 1015.22 1014.93 1014.72 1014.42 1013.91 1014.19 1014.74 1014.81 1014.39 1014.63 1015.01 1015.08 1014.09 1013.11 1012.49 1012.08 1011.83 1011.96 1012.15 1012.15 1012.22 1012.36 1012.30 1012.33 1012.33 1012.21 1012.34 1012.38 1012.55 1012.40 1012.39 1012.23 1011.91 1011.28 1011.32 1011.26 1011.09 1010.72 1010.70 1010.98 1011.35 1011.79 1012.08 1012.43
1013.97 1014.63 1015.17 1015.59 1015.70 1015.73 1015.64 1015.53 1015.29 1015.11 1014.91 1014.69 1014.49 1014.36 1014.51 1014.57 1014.83 1014.19 1014.03 1014.22 1014.58 1014.83 1013.68 1012.90 1012.47 1011.98 1011.74 1011.68 1011.90 1012.05 1012.08 1012.10 1012.22 1012.26 1012.23 1012.24 1012.12 1012.50 1013.04 1013.33 1013.24 1013.26 1013.13 1012.51 1011.89 1011.53 1011.14 1011.11 1011.14 1011.35 1011.63 1012.05 1012.40 1012.75
1013.70 1014.35 1014.87 1015.17 1015.35 1015.32 1015.34 1015.08 1014.96 1014.86 1014.64 1014.40 1014.65 1014.64 1014.28 1014.16 1014.14 1014.11 1014.23 1014.18 1014.15 1013.64 1013.45 1012.68 1012.21 1012.06 1011.89 1011.76 1011.80 1012.01 1011.81 1011.82 1012.08 1012.21 1012.27 1012.27 1012.41 1013.07 1013.58 1013.77 1013.73 1013.66 1013.40 1013.04 1012.49 1011.55 1011.19 1011.14 1011.28 1011.32 1011.44 1011.79 1012.17 1012.56
1013.36 1013.95 1014.43 1014.84 1014.91 1015.09 1015.01 1014.81 1014.79 1014.74 1014.58 1014.70 1014.76 1014.45 1014.34 1014.18 1014.05 1013.81 1013.67 1013.61 1013.54 1013.23 1012.56 1012.28 1012.01 1011.87 1011.91 1011.94 1011.91 1012.07 1012.02 1012.12 1012.21 1012.45 1012.53 1012.60 1012.94 1013.55 1014.02 1014.23 1014.11 1013.86 1013.42 1012.96 1012.61 1011.90 1011.38 1011.09 1010.86 1010.78 1011.01 1011.37 1011.80 1012.29
1013.00 1013.69 1014.20 1014.47 1014.75 1014.98 1014.69 1014.63 1014.71 1014.93 1014.96 1014.91 1014.96 1014.76 1014.46 1014.18 1013.91 1013.76 1013.41 1013.25 1012.97 1012.84 1012.18 1011.88 1011.96 1011.85 1012.03 1011.93 1012.13 1012.34 1012.33 1012.42 1012.24 1012.52 1012.91 1012.93 1013.40 1014.09 1014.38 1014.32 1014.03 1013.75 1013.27 1012.63 1012.07 1011.51 1010.83 1010.20 1010.00 1010.08 1010.33 1010.82 1011.37 1012.01
1012.84 1013.50 1013.94 1014.24 1014.61 1014.70 1014.47 1014.50 1014.59 1014.68 1014.62 1014.80 1014.86 1014.76 1014.22 1013.93 1013.69 1013.25 1012.84 1012.87 1012.67 1012.53 1012.47 1012.31 1012.25 1012.12 1012.23 1012.19 1012.45 1012.56 1012.54 1012.47 1012.54 1012.81 1012.93 1013.21 1014.08 1014.56 1014.78 1014.59 1014.25 1013.80 1013.25 1012.69 1012.09 1011.56 1010.78 1010.16 1009.92 1010.01 1010.36 1010.75 1011.34 1012.03
1012.60 1013.34 1013.78 1014.18 1014.39 1014.49 1014.26 1014.31 1014.48 1014.65 1014.72 1014.96 1015.01 1014.70 1014.20 1013.53 1013.12 1012.57 1012.44 1012.53 1012.85 1012.82 1012.73 1012.65 1012.59 1012.53 1012.44 1012.52 1012.60 1012.67 1012.59 1012.67 1013.02 1013.19 1013.27 1014.06 1014.71 1015.12 1015.14 1014.99 1014.52 1014.15 1013.75 1013.22 1012.59 1012.01 1011.35 1010.88 1010.67 1010.71 1010.84 1011.16 1011.67 1012.21
1012.53 1013.21 1013.58 1013.90 1014.10 1014.19 1014.23 1014.26 1014.37 1014.78 1014.98 1015.22 1015.29 1014.81 1013.85 1013.33 1013.16 1013.00 1012.90 1012.98 1013.06 1012.93 1012.94 1012.96 1013.01 1012.88 1012.91 1012.91 1012.88 1013.00 1013.08 1013.01 1012.96 1013.08 1013.80 1014.61 1015.12 1015.45 1015.46 1015.30 1014.99 1014.59 1014.15 1013.73 1013.28 1012.78 1012.18 1011.63 1011.39 1011.38 1011.55 1011.74 1012.04 1012.43
1012.45 1013.13 1013.45 1013.75 1014.00 1014.25 1014.46 1014.55 1014.57 1014.92 1015.49 1015.60 1015.51 1014.98 1014.19 1013.94 1013.73 1013.60 1013.43 1013.39 1013.23 1013.13 1013.11 1013.20 1013.22 1013.16 1013.10 1013.12 1013.27 1013.00 1013.09 1012.97 1013.34 1013.70 1014.42 1015.16 1015.61 1015.85 1016.00 1015.93 1015.65 1015.30 1014.89 1014.43 1013.93 1013.37 1012.81 1012.35 1012.12 1011.94 1011.96 1012.13 1012.34 1012.59
1012.60 1013.06 1013.24 1013.57 1014.11 1014.33 1014.60 1014.81 1014.97 1015.30 1015.70 1015.91 1015.67 1014.97 1014.66 1014.48 1013.92 1013.75 1013.57 1013.44 1013.32 1013.35 1013.34 1013.36 1013.36 1013.02 1013.32 1013.32 1013.29 1012.98 1012.92 1013.11 1013.60 1014.39 1015.03 1015.46 1015.84 1016.12 1016.26 1016.10 1015.88 1015.61 1015.34 1014.98 1014.50 1013.96 1013.54 1013.07 1012.66 1012.49 1012.52 1012.58 1012.70 1012.87
1012.58 1012.90 1013.17 1013.68 1014.03 1014.42 1014.90 1015.16 1015.49 1015.68 1015.85 1015.66 1015.66 1015.33 1014.95 1014.61 1014.29 1014.06 1013.94 1013.82 1013.85 1013.79 1013.68 1013.65 1013.62 1013.58 1013.38 1013.20 1013.21 1013.23 1013.49 1013.80 1014.15 1014.62 1015.10 1015.48 1015.91 1016.18 1016.31 1016.34 1016.13 1015.84 1015.54 1015.24 1014.89 1014.50 1014.10 1013.71 1013.37 1013.16 1013.04 1012.99 1013.05 1013.01
1012.41 1012.75 1013.19 1013.55 1014.16 1014.84 1015.40 1015.71 1015.81 1015.86 1015.65 1015.52 1015.43 1015.27 1015.12 1014.96 1014.72 1014.54 1014.48 1014.42 1014.41 1014.38 1014.30 1014.23 1014.05 1013.48 1013.31 1012.99 1013.27 1013.94 1013.90 1014.13 1014.45 1014.85 1015.24 1015.54 1015.89 1016.32 1016.51 1016.50 1016.34 1016.13 1015.90 1015.55 1015.12 1014.84 1014.55 1014.23 1013.91 1013.53 1013.29 1013.20 1013.20 1013.19
1012.44 1012.79 1013.18 1013.61 1014.21 1015.14 1015.84 1016.07 1016.00 1016.02 1015.95 1015.76 1015.63 1015.68 1015.62 1015.60 1015.45 1015.20 1015.12 1015.09 1015.05 1015.00 1014.93 1014.42 1013.61 1013.08 1013.03 1013.11 1013.21 1013.53 1013.94 1014.38 1014.78 1015.32 1015.67 1015.96 1016.28 1016.55 1016.69 1016.77 1016.69 1016.49 1016.14 1015.74 1015.40 1015.03 1014.62 1014.31 1013.90 1013.59 1013.35 1013.28 1013.27 1013.18
1012.82 1013.58 1013.77 1014.11 1014.80 1015.17 1015.89 1016.24 1016.33 1016.29 1016.19 1016.16 1016.16 1016.11 1016.25 1016.24 1016.09 1015.92 1015.75 1015.59 1015.70 1015.19 1014.70 1013.66 1013.36 1013.18 1013.54 1013.57 1013.62 1013.88 1014.38 1014.80 1015.11 1015.39 1015.84 1016.37 1016.47 1016.72 1016.88 1016.97 1016.95 1016.77 1016.61 1016.37 1016.01 1015.41 1015.01 1014.72 1014.40 1013.91 1013.43 1013.07 1012.90 1012.97
1013.30 1013.57 1014.17 1014.56 1015.25 1015.87 1016.34 1016.77 1016.85 1016.71 1016.84 1016.85 1016.79 1016.82 1017.04 1017.05 1016.77 1016.50 1016.18 1016.11 1015.21 1013.95 1013.63 1013.40 1013.39 1013.45 1013.95 1014.13 1014.31 1014.32 1014.53 1014.96 1015.36 1015.73 1016.04 1016.31 1016.58 1016.89 1017.04 1017.02 1017.11 1017.03 1016.81 1016.61 1016.26 1015.81 1015.26 1014.83 1014.37 1013.84 1013.29 1012.92 1012.66 1012.62
1013.45 1013.87 1014.61 1015.36 1016.21 1016.65 1017.41 1017.14 1017.42 1017.33 1017.38 1017.50 1017.55 1017.66 1017.63 1017.50 1017.08 1016.73 1016.46 1015.55 1014.04 1012.64 1012.64 1013.12 1013.39 1013.75 1013.90 1014.22 1014.50 1014.82 1015.02 1015.23 1015.72 1015.96 1016.25 1016.49 1016.63 1016.75 1016.86 1016.85 1016.92 1016.91 1016.70 1016.25 1015.91 1015.63 1015.26 1014.79 1014.13 1013.67 1013.27 1012.86 1012.59 1012.55
1013.42 1014.42 1015.39 1016.24 1016.89 1017.68 1017.89 1018.04 1017.95 1018.10 1018.06 1017.95 1018.23 1018.26 1018.01 1017.78 1017.49 1017.23 1016.50 1014.56 1012.69 1012.65 1013.07 1013.30 1013.57 1014.30 1014.75 1014.88 1015.10 1015.17 1015.20 1015.44 1015.78 1016.05 1016.27 1016.60 1016.94 1016.66 1016.42 1016.25 1016.24 1016.27 1016.18 1015.73 1015.54 1015.38 1015.02 1014.64 1014.15 1013.70 1013.29 1012.84 1012.57 1012.47
1014.25 1015.38 1016.00 1017.13 1017.68 1018.29 1018.61 1018.70 1018.91 1018.74 1018.78 1018.46 1018.66 1018.41 1018.28 1018.18 1018.15 1017.44 1015.87 1013.44 1012.80 1013.13 1013.22 1013.46 1013.69 1014.07 1014.60 1014.76 1015.06 1015.00 1015.20 1015.37 1015.90 1016.28 1016.13 1016.35 1016.39 1016.46 1016.39 1016.18 1015.80 1015.65 1015.47 1015.58 1015.30 1015.15 1014.94 1014.57 1014.10 1013.68 1013.26 1012.89 1012.45 1012.25
1014.45 1015.17 1015.79 1016.39 1017.71 1018.12 1018.36 1018.98 1018.87 1018.78 1018.74 1018.72 1018.63 1018.62 1018.75 1018.61 1018.24 1016.41 1014.24 1013.00 1012.88 1013.10 1012.98 1013.04 1013.34 1014.15 1014.58 1014.53 1014.67 1015.22 1014.78 1014.98 1015.63 1016.01 1015.93 1015.79 1016.05 1016.36 1016.60 1016.44 1015.71 1015.06 1014.73 1014.79 1015.01 1015.02 1014.69 1014.39 1014.18 1013.75 1013.24 1012.81 1012.28 1011.95
1014.25 1015.03 1015.47 1015.88 1016.56 1017.46 1018.24 1018.02 1018.10 1018.36 1018.44 1018.41 1018.10 1018.48 1018.60 1018.43 1016.76 1014.40 1012.93 1012.53 1012.66 1012.58 1012.57 1012.38 1012.67 1013.47 1013.63 1014.03 1014.13 1014.24 1014.36 1014.69 1015.09 1015.37 1015.23 1015.37 1015.42 1015.45 1015.67 1015.64 1015.23 1014.62 1014.32 1014.60 1014.83 1014.50 1014.19 1013.82 1013.61 1013.28 1012.89 1012.47 1012.12 1011.83
1013.24 1014.30 1015.18 1016.03 1016.68 1017.13 1017.93 1018.07 1017.89 1017.54 1016.99 1016.70 1017.21 1017.72 1017.46 1016.22 1014.49 1013.19 1012.64 1012.54 1012.64 1012.67 1012.88 1012.88 1012.90 1013.02 1013.55 1013.78 1013.82 1014.13 1014.66 1014.96 1015.35 1015.24 1015.11 1014.88 1014.73 1014.85 1014.76 1014.53 1014.34 1014.01 1013.93 1013.88 1013.85 1013.71 1013.36 1013.04 1012.74 1012.44 1012.19 1011.91 1011.52 1011.22
1013.28 1014.13 1014.99 1016.74 1017.08 1017.39 1017.17 1016.93 1016.58 1015.78 1014.93 1015.66 1016.19 1015.89 1015.40 1014.20 1012.99 1012.76 1012.37 1012.44 1012.50 1012.93 1013.55 1013.56 1013.59 1013.63 1013.84 1013.99 1014.19 1014.36 1014.50 1014.92 1015.50 1015.38 1015.10 1014.77 1014.64 1014.38 1013.82 1013.91 1013.78 1013.53 1013.37 1013.26 1012.84 1012.46 1012.16 1011.92 1011.61 1011.32 1011.11 1010.95 1010.69 1010.49
1013.33 1013.89 1015.12 1016.19 1016.88 1016.51 1015.69 1015.36 1015.27 1014.95 1015.00 1015.06 1015.26 1015.01 1014.57 1013.61 1012.38 1012.11 1012.37 1012.78 1013.13 1013.11 1013.02 1013.16 1013.28 1013.68 1013.81 1014.09 1014.24 1014.54 1014.24 1014.28 1014.42 1014.54 1014.51 1014.23 1014.01 1013.75 1013.79 1013.68 1013.08 1012.63 1012.44 1012.33 1012.07 1011.81 1011.43 1011.13 1010.86 1010.71 1010.35 1010.10 1009.73 1009.63
1012.73 1013.90 1014.98 1015.47 1015.90 1015.73 1015.80 1015.85 1015.77 1015.53 1015.68 1015.88 1016.01 1016.02 1015.39 1014.38 1012.84 1011.51 1011.56 1011.49 1011.69 1012.40 1012.96 1013.22 1013.36 1013.55 1013.61 1013.69 1014.03 1014.31 1013.89 1013.58 1013.85 1013.93 1013.87 1013.70 1013.36 1013.07 1012.68 1012.19 1011.84 1011.63 1011.42 1011.22 1011.06 1010.93 1010.75 1010.62 1010.47 1010.21 1009.77 1009.30 1008.90 1008.84
1012.96 1013.86 1014.50 1015.46 1015.88 1015.92 1016.13 1016.24 1016.20 1016.22 1016.45 1016.59 1016.52 1016.54 1016.03 1015.52 1014.44 1012.06 1011.08 1011.43 1011.90 1012.22 1012.14 1012.45 1012.69 1012.68 1012.65 1012.71 1012.95 1013.11 1012.60 1013.55 1013.48 1013.22 1013.05 1012.72 1012.24 1011.74 1011.37 1010.99 1010.60 1010.27 1010.13 1009.93 1009.84 1009.87 1009.88 1009.90 1009.73 1009.40 1008.99 1008.54 1008.35 1008.48
1013.15 1013.75 1014.39 1014.91 1015.55 1015.80 1016.04 1015.99 1016.19 1016.40 1016.74 1016.76 1016.54 1016.33 1016.09 1015.78 1014.53 1011.68 1011.04 1011.19 1011.47 1011.52 1011.67 1011.75 1011.92 1012.27 1012.31 1012.32 1012.55 1012.79 1012.65 1012.80 1012.66 1012.28 1011.72 1011.31 1010.76 1010.19 1009.74 1009.42 1009.11 1008.79 1008.62 1008.61 1008.77 1008.92 1008.97 1008.91 1008.76 1008.47 1008.19 1008.07 1008.15 1008.47
Wind_Speed
13 12 12 11 9 9 9 11 11 10 9 9 7 10 9 11 8 3 4 1 2 3 5 3 4 3 2 2 4 4 3 1 2 1 2 2 2 2 2 4 6 6 6 4 4 4 8 4 2 2 4 3 2 3
15 14 13 10 8 9 10 11 12 12 9 10 10 9 10 11 6 1 1 1 1 4 5 2 7 8 4 2 2 1 2 2 3 2 1 2 1 1 2 3 1 4 7 5 8 7 5 2 2 2 4 4 2 3
16 14 12 10 9 9 10 11 11 13 11 9 13 11 11 13 7 5 2 2 1 3 5 3 6 3 4 6 2 4 2 3 2 1 2 2 3 3 2 5 4 4 6 3 1 4 9 7 4 4 4 3 2 3
16 15 14 10 9 10 11 10 11 15 9 9 14 12 14 14 12 6 3 3 1 3 3 3 2 3 3 1 0 0 4 4 4 2 2 2 2 4 3 3 3 4 6 6 5 8 7 3 4 3 3 2 2 2
17 16 13 12 10 10 11 10 12 16 10 12 12 13 13 14 13 7 3 4 5 2 3 3 4 1 2 1 2 2 4 4 2 2 2 3 2 1 1 1 4 4 5 4 4 2 2 6 1 3 4 3 4 6
17 15 13 9 10 11 10 10 12 13 11 12 13 14 15 15 6 3 2 2 6 4 4 2 2 3 2 3 4 3 3 2 2 2 2 2 3 3 3 3 1 2 3 2 5 4 4 5 2 3 3 4 3 5
17 16 13 11 11 9 10 10 14 11 11 12 13 15 17 13 4 4 1 1 13 6 4 2 1 1 2 3 1 1 2 2 2 2 3 2 2 3 2 4 3 4 5 7 8 4 4 3 4 5 3 3 4 3
17 15 14 11 10 8 8 10 13 11 12 13 13 13 3 11 4 3 3 9 5 4 3 2 1 1 4 2 2 2 2 1 2 2 1 2 1 3 4 4 8 9 12 4 10 6 5 3 3 4 3 4 4 4
18 16 12 10 8 7 6 13 10 10 11 12 7 1 3 1 2 2 3 10 3 3 2 1 1 2 3 2 2 2 2 3 2 3 2 1 3 4 2 6 7 7 7 11 12 10 6 4 4 4 4 5 5 5
16 15 12 10 7 5 9 10 8 9 11 4 2 2 3 1 1 2 3 4 3 3 3 2 1 2 2 2 1 1 2 1 2 2 0 2 1 4 2 5 6 7 9 8 7 7 3 3 5 5 7 5 6 6
18 16 13 9 1 7 11 6 6 7 3 2 1 1 1 3 1 1 1 2 1 2 3 4 4 2 1 2 1 0 0 0 1 1 2 2 2 1 4 6 6 7 7 7 8 11 12 11 7 5 6 7 7 8
18 14 12 7 3 7 12 3 3 3 1 3 1 2 2 1 1 2 3 2 3 4 2 1 2 1 1 1 2 1 1 0 3 2 1 2 2 1 5 6 7 7 8 10 9 9 9 8 7 6 6 8 8 8
17 14 10 6 4 9 11 2 2 3 1 1 0 2 2 2 4 5 6 3 2 1 2 2 1 1 1 1 2 1 1 3 2 2 3 1 2 3 5 5 7 7 9 10 10 10 9 5 3 2 5 6 8 7
17 13 10 7 7 8 9 1 1 1 1 1 2 4 4 4 5 3 4 2 2 2 1 1 1 1 1 2 1 1 1 1 2 3 4 2 0 3 4 5 6 9 9 10 10 11 10 6 3 2 3 5 7 7
17 14 9 7 3 2 5 2 3 2 2 3 2 5 4 1 2 1 1 2 0 1 1 2 2 1 1 1 1 0 1 4 4 4 2 2 1 2 4 6 8 8 9 8 9 8 9 7 4 1 2 4 5 6
14 9 4 7 7 6 5 3 2 2 2 2 2 1 2 1 1 0 1 1 1 2 1 2 2 2 3 2 3 5 3 5 3 2 2 1 1 2 3 4 5 6 7 8 8 8 8 8 5 3 2 3 4 5
11 2 9 11 8 6 3 2 2 3 3 1 3 2 1 1 2 1 1 2 1 1 2 2 4 5 2 3 4 4 4 2 3 2 2 3 1 3 3 4 5 6 6 7 8 9 8 7 6 2 1 3 5 6
2 4 13 10 4 3 2 2 2 2 2 2 1 3 1 0 0 1 1 1 1 1 1 2 2 3 4 4 3 3 2 2 2 3 3 3 2 1 1 4 5 5 6 6 6 6 5 7 6 4 4 2 2 4
6 6 13 10 6 3 1 1 1 2 3 1 1 0 2 1 1 2 2 2 2 1 1 1 4 5 5 3 4 3 2 3 3 3 2 0 2 2 3 3 4 3 4 6 5 5 5 5 4 4 4 2 3 2
13 10 12 11 7 3 1 2 0 0 1 1 1 0 1 1 1 1 1 0 1 0 2 5 5 3 4 3 3 3 3 3 4 2 1 0 2 1 2 2 3 5 5 5 4 9 5 5 4 4 3 3 3 4
9 4 8 4 2 3 2 1 0 1 1 0 1 0 0 2 0 1 1 0 1 4 4 4 4 2 1 0 2 3 4 4 4 4 3 2 2 1 2 2 2 3 3 4 5 6 7 5 5 6 5 4 4 4
3 6 3 2 3 3 3 1 1 0 1 0 1 1 1 1 2 2 1 2 5 5 5 4 3 4 3 4 3 3 4 5 4 2 3 3 2 1 2 2 2 3 3 3 3 5 6 5 6 7 6 5 5 3
7 3 3 3 3 3 2 2 2 2 2 2 1 1 2 2 3 1 3 4 5 4 3 3 3 1 3 2 3 3 4 5 4 4 3 3 3 3 3 3 3 3 4 4 4 4 5 9 9 8 7 6 3 3
3 3 3 1 3 2 1 2 1 2 2 1 1 3 2 2 1 1 5 5 4 1 2 5 3 3 3 3 2 3 3 3 3 1 2 3 2 4 3 3 3 4 5 5 3 3 4 4 11 7 7 7 4 5
4 3 5 3 2 4 1 2 3 3 2 2 1 3 2 2 1 3 5 5 2 2 3 3 2 2 4 2 0 2 3 4 5 5 3 4 2 2 3 3 5 5 4 3 5 4 4 3 5 8 9 8 6 6
4 5 8 7 2 4 5 3 3 5 3 1 4 2 2 2 0 8 5 3 3 4 5 7 7 3 3 3 3 2 4 5 3 2 3 5 5 4 3 4 7 5 4 4 3 4 5 3 3 6 8 9 14 10
5 7 3 2 4 4 1 2 1 3 4 6 4 3 3 2 7 6 3 3 2 3 3 4 6 7 5 4 2 2 2 4 5 3 1 2 4 5 5 6 8 5 2 2 3 5 7 7 7 6 7 7 7 8
4 6 10 6 2 1 5 3 5 7 5 4 5 4 6 9 6 4 4 2 1 1 1 0 0 2 3 3 2 3 1 1 2 3 3 4 5 4 7 7 6 15 8 6 7 7 8 8 8 8 7 8 8 6
4 3 5 4 2 3 7 9 7 5 4 5 6 5 6 5 3 3 2 1 2 3 1 1 1 1 2 2 1 1 3 4 4 3 6 6 3 4 4 4 4 4 4 6 14 15 11 8 8 8 11 10 9 7
5 3 5 4 7 8 6 6 4 2 1 2 1 3 3 4 4 1 2 2 2 5 4 3 3 4 4 4 2 3 3 4 5 5 5 6 5 3 2 4 7 7 5 6 7 8 14 10 9 7 8 9 7 5
6 4 4 3 6 3 3 2 3 2 3 1 1 3 4 5 6 4 6 4 3 3 3 2 1 3 4 3 4 2 4 2 5 7 6 4 4 6 7 7 7 6 6 8 8 7 7 6 4 7 9 11 9 10
3 5 6 4 4 3 1 2 1 1 3 2 3 1 4 3 5 6 2 3 3 3 8 5 5 5 6 4 2 2 3 2 4 5 7 5 6 8 8 8 8 8 8 9 8 7 8 9 7 8 9 9 9 9
3 3 3 4 2 1 2 3 2 3 2 2 4 3 3 3 8 5 1 2 2 2 3 3 3 3 4 5 4 3 5 3 7 12 14 17 20 16 10 7 8 8 10 7 6 7 9 10 9 10 8 7 8 8
Wind_Direction
219 217 236 248 259 276 289 295 295 308 305 310 310 314 319 322 338 58 275 331 314 291 278 257 294 311 9 149 159 203 73 36 78 163 184 201 204 213 166 177 177 167 171 193 180 235 265 190 94 163 221 270 236 218
213 223 236 239 254 271 284 291 291 309 293 309 304 297 303 302 310 62 312 0 330 254 280 306 277 265 241 291 152 122 144 143 185 133 133 88 283 323 195 218 209 200 184 181 195 215 244 250 256 224 190 224 268 192
211 222 226 231 245 262 279 288 295 298 287 289 298 295 299 294 289 257 209 236 320 266 269 244 229 203 174 223 261 123 265 148 163 157 138 152 253 144 222 240 204 230 182 230 193 260 246 255 238 220 207 220 253 222
211 216 221 225 242 261 274 289 298 301 299 295 291 295 295 291 279 250 169 194 137 286 267 249 138 184 142 83 204 60 128 81 102 119 133 213 246 168 230 229 226 222 148 207 250 281 288 258 223 210 212 215 243 150
210 215 208 222 235 258 276 297 295 299 298 299 301 301 297 289 278 263 185 189 148 277 309 305 303 255 60 122 148 136 131 128 141 139 165 217 231 162 263 338 247 195 213 180 235 280 231 270 275 168 202 230 220 175
209 206 204 215 234 258 280 295 292 297 305 301 305 304 296 288 292 100 303 160 150 188 271 296 49 143 146 157 149 128 145 124 164 169 186 216 255 178 243 226 117 103 331 286 271 292 226 268 250 166 198 213 194 189
208 195 200 214 238 260 283 294 300 302 306 309 313 310 302 269 137 153 275 23 169 174 245 271 12 34 126 95 84 145 138 188 187 167 210 224 222 162 224 242 353 333 337 332 352 317 278 193 270 177 154 143 119 107
195 192 197 224 248 268 291 290 299 305 311 321 319 312 79 120 88 289 235 209 162 227 251 281 277 348 176 161 177 173 162 118 186 190 236 203 168 190 241 4 341 350 328 282 357 347 281 293 91 100 100 128 124 145
191 185 196 223 244 267 285 286 299 310 322 324 307 323 86 114 201 225 129 156 188 270 305 254 183 203 157 167 175 178 202 198 146 203 229 219 168 218 106 319 324 333 315 303 317 306 290 275 208 169 154 175 163 175
177 178 195 216 234 285 284 293 304 325 327 322 79 220 213 177 9 188 182 172 202 195 222 251 152 221 154 155 198 209 176 197 204 203 282 234 233 125 168 323 308 309 306 311 317 323 324 276 233 216 210 197 188 177
182 186 189 193 103 322 306 306 332 347 23 66 240 269 348 291 199 226 184 214 185 250 200 228 196 168 286 123 191 300 244 236 244 161 239 208 207 185 318 311 300 292 300 291 261 262 264 255 262 229 207 198 180 171
171 171 183 151 121 304 309 323 23 56 182 178 205 293 271 205 175 225 197 194 202 234 242 199 182 169 115 105 97 349 212 33 251 119 223 236 119 4 328 315 317 319 323 323 324 308 297 256 234 223 189 176 169 159
163 177 166 145 219 287 323 312 356 234 300 68 102 287 190 188 218 208 190 204 202 342 2 12 53 86 88 55 79 107 201 239 111 225 237 154 75 356 332 321 323 333 344 344 342 339 338 352 24 137 142 137 141 151
166 159 156 186 224 268 308 342 91 84 112 171 185 218 210 195 233 201 163 160 134 140 77 78 81 98 17 99 159 208 237 73 268 248 235 131 308 317 325 336 346 346 347 347 343 342 351 346 344 49 103 133 152 159
169 172 203 188 247 56 42 10 125 82 144 176 158 229 217 197 28 52 68 100 23 112 106 96 44 112 20 116 191 204 228 242 227 228 161 201 230 330 352 350 350 348 345 345 343 343 346 353 348 347 154 165 158 161
165 165 182 174 112 75 43 20 58 88 51 106 210 329 255 181 156 265 208 151 223 127 103 81 139 117 219 185 188 216 214 228 233 167 130 148 330 335 338 340 334 335 339 336 337 339 343 353 348 310 169 173 166 169
145 142 179 146 148 136 101 67 53 56 148 104 271 246 214 164 206 187 184 136 132 118 170 158 188 197 106 211 225 203 218 189 169 141 166 181 250 313 328 333 342 344 341 343 342 342 337 333 325 347 221 214 193 188
99 155 145 148 134 117 59 51 89 118 235 233 141 259 217 350 138 86 79 55 116 155 149 185 104 203 212 206 224 190 158 152 134 157 176 189 200 194 356 329 318 322 334 334 335 326 328 349 348 343 328 264 156 154
137 145 150 151 113 94 92 351 77 235 235 248 281 279 133 130 46 75 83 64 80 82 90 180 224 208 226 208 183 220 190 187 167 169 168 128 140 106 343 322 310 330 339 326 330 337 330 319 300 310 313 259 239 205
149 167 159 142 124 111 93 272 35 145 249 269 29 43 75 82 12 38 68 89 84 73 219 219 215 224 204 215 183 167 162 147 125 126 284 331 150 100 337 344 329 329 326 324 310 341 327 337 339 332 317 270 258 235
83 87 87 91 61 66 104 132 349 202 264 239 326 76 331 2 210 169 195 241 187 227 242 225 222 221 62 125 125 120 136 151 176 170 174 240 267 296 293 287 297 303 319 335 327 324 341 324 319 314 304 280 243 233
92 111 95 40 77 19 85 8 164 310 119 254 58 31 208 218 211 224 137 196 235 225 204 197 214 165 161 180 186 174 166 147 132 148 194 230 254 317 291 261 339 299 301 261 267 285 296 311 307 300 296 284 267 210
102 69 60 48 61 48 244 32 83 345 133 260 48 1 250 245 233 147 245 235 251 226 192 172 165 148 143 76 119 129 159 151 176 196 220 223 231 228 224 247 222 227 277 268 245 266 284 295 308 307 300 299 238 222
71 78 108 113 90 238 32 10 356 44 26 82 140 281 261 217 333 220 253 245 238 125 172 181 128 93 47 54 180 214 193 157 165 251 212 166 244 269 249 257 244 218 235 270 257 254 267 282 305 307 302 294 245 232
112 258 114 264 319 68 59 357 348 56 260 214 179 290 273 65 143 239 240 264 231 218 199 162 140 163 161 198 248 242 215 165 173 200 245 194 216 325 302 271 268 247 231 251 273 256 260 273 297 306 307 301 257 237
198 217 176 189 242 156 188 153 203 208 186 242 234 257 35 96 339 244 234 234 234 202 181 180 175 159 260 201 156 197 224 179 133 183 248 196 188 183 230 265 296 291 228 210 222 258 262 252 273 284 290 292 294 272
216 219 200 127 135 112 75 352 48 125 186 206 211 155 100 239 248 254 273 242 224 239 214 167 164 186 202 184 196 229 187 165 172 186 124 172 198 199 190 225 256 246 192 212 236 245 266 275 270 265 270 283 272 260
209 169 172 181 165 161 150 165 175 206 219 198 127 177 199 205 242 239 220 239 213 36 21 318 356 155 153 178 182 120 107 83 346 326 285 250 230 214 226 237 245 266 267 234 236 238 242 247 251 254 255 262 272 251
170 179 117 134 131 194 203 187 208 218 184 156 174 210 231 227 238 238 254 187 101 91 70 182 260 67 67 61 77 157 140 153 140 259 275 275 295 281 209 215 239 249 249 253 275 272 256 246 245 249 248 252 255 249
210 164 111 164 169 213 225 185 213 219 114 156 231 325 301 272 255 184 122 105 173 211 208 188 160 168 190 172 218 286 225 198 198 190 222 254 230 242 268 258 261 258 235 242 256 266 276 285 288 286 276 273 243 204
128 108 90 156 221 244 230 290 359 39 38 19 332 172 247 299 302 240 208 211 180 127 131 170 214 208 172 183 185 179 283 243 205 226 237 256 263 259 259 261 259 254 247 248 246 244 250 264 240 259 259 264 218 198
110 172 149 174 258 282 31 90 137 104 337 15 284 351 322 350 273 273 192 123 119 188 226 204 198 227 209 213 196 215 228 192 205 220 232 249 257 256 258 260 259 249 243 247 237 236 238 239 247 245 260 235 209 178
101 89 82 100 72 308 256 109 37 322 334 270 260 208 222 212 243 275 278 182 169 193 205 208 190 169 179 176 183 223 243 224 260 273 283 295 298 292 285 275 283 258 241 226 223 229 236 238 244 252 234 200 176 164